Date_and_time,latitude,longitude,wind_speed,RelWindDirFrom,WindDirFrom,air_pressure,air_temperature,relative_humidity,Temp,platform_speed_wrt_ground,air_pressure_at_mean_sea_level,platform_orientation
2019-09-20 23:40,53.6169933333333,-97.966425,16.5,18.9,187,978.77,16.3,100,15.26,0.1,1004.80,350.0
2019-09-20 23:50,53.6169716666667,-97.9662883333333,15.2,18.7,195,978.67,16.4,100,15.26,0.0,1004.67,350.0
2019-09-21 00:00,53.6169733333333,-97.9662383333333,16.1,17.6,193,978.65,16.6,100,15.26,0.0,1004.63,350.4
2019-09-21 00:10,53.6147833333333,-97.9720433333333,16.3,20.3,193,978.71,16.5,100,15.26,1.5,1004.68,350.4
2019-09-21 00:20,53.60252,-98.0169216666667,19.9,21.7,209,978.26,16.4,100,15.25,10.6,1004.23,350.4
2019-09-21 00:30,53.5963116666667,-98.037485,15.6,21.4,195,978.80,16.2,100,15.26,4.9,1004.76,350.4
2019-09-21 00:40,53.5963366666667,-98.0364266666667,12.3,14.7,183,978.93,16.3,100,15.29,0.2,1004.88,350.4
2019-09-21 00:50,53.5958883333333,-98.03426,10.6,14.2,184,978.77,16.5,100,15.31,0.5,1004.77,350.4
2019-09-21 01:00,53.5964816666667,-98.0351366666667,9.2,10.9,173,978.77,16.2,100,15.33,0.3,1004.82,336.5
2019-09-21 01:10,53.598105,-98.036075,8.6,10.2,173,978.65,16.1,100,15.33,0.6,1004.71,336.5
2019-09-21 01:20,53.6156966666667,-98.0780933333333,7.8,10.0,242,978.75,15.8,100,15.32,11.0,1004.81,336.5
2019-09-21 01:30,53.63221,-98.1219383333333,8.5,10.3,244,978.49,15.8,100,15.34,11.1,1004.54,336.5
2019-09-21 01:40,53.6500916666667,-98.1614466666667,8.4,11.3,248,978.32,15.9,100,15.34,10.6,1004.36,336.5
2019-09-21 01:50,53.6766266666667,-98.1352383333333,6.7,9.7,91,978.13,16.2,100,15.31,11.1,1004.14,336.5
2019-09-21 02:00,53.7039133333333,-98.110975,5.5,7.6,64,977.88,16.0,100,15.30,11.1,1003.89,321.6
2019-09-21 02:10,53.7304933333333,-98.089575,4.2,6.4,30,977.91,15.9,100,15.33,10.6,1003.94,321.6
2019-09-21 02:20,53.7450333333333,-98.0797466666667,2.2,3.7,290,978.15,15.6,100,15.54,5.6,1004.20,321.6
2019-09-21 02:30,53.7481266666667,-98.0771,3.2,6.2,259,978.35,15.8,100,15.84,1.2,1004.39,321.6
2019-09-21 02:40,53.7481233333333,-98.0771233333333,7.3,8.5,239,978.34,15.9,100,15.90,0.0,1004.37,321.6
2019-09-21 02:50,53.7480983333333,-98.0770616666667,8.5,10.1,249,978.35,16.0,100,15.90,0.0,1004.40,321.6
2019-09-21 03:00,53.7480966666667,-98.0770733333333,9.4,10.3,255,978.42,16.1,100,15.90,0.0,1004.46,333.5
2019-09-21 03:10,53.7480816666667,-98.077035,9.0,9.9,268,978.36,16.1,100,15.92,0.0,1004.42,333.5
2019-09-21 03:20,53.7480766666667,-98.07707,7.4,9.5,282,978.25,16.1,101,15.94,0.0,1004.30,333.5
2019-09-21 03:30,53.748115,-98.0770983333333,5.1,6.9,290,978.30,16.2,101,15.94,0.0,1004.35,333.5
2019-09-21 03:40,53.748105,-98.0771116666667,3.7,4.7,285,978.30,16.1,100,15.92,0.0,1004.34,333.5
2019-09-21 03:50,53.74809,-98.07708,6.1,7.8,298,978.34,15.9,101,15.89,0.0,1004.39,333.5
2019-09-21 04:00,53.7481066666667,-98.0770933333333,5.3,6.4,299,978.39,15.9,101,15.88,0.0,1004.45,350.7
2019-09-21 04:10,53.7481033333333,-98.077095,4.3,4.7,320,978.31,15.8,101,15.86,0.0,1004.39,350.7
2019-09-21 04:20,53.7481016666667,-98.07711,4.0,4.9,315,978.31,15.8,101,15.86,0.0,1004.38,350.7
2019-09-21 04:30,53.7480983333333,-98.0771083333333,3.3,4.5,301,978.32,15.8,101,15.85,0.0,1004.39,350.7
2019-09-21 04:40,53.7481166666667,-98.0771283333333,3.2,3.8,311,978.24,15.9,101,15.85,0.0,1004.30,350.7
2019-09-21 04:50,53.748095,-98.07712,3.7,5.7,311,978.15,15.8,101,15.84,0.0,1004.20,350.7
2019-09-21 05:00,53.7480916666667,-98.0770416666667,4.9,6.8,312,978.08,15.7,101,15.81,0.0,1004.13,24.4
2019-09-21 05:10,53.7480233333333,-98.0769916666667,6.6,8.9,307,978.06,15.7,101,15.78,0.0,1004.11,24.4
2019-09-21 05:20,53.7480133333333,-98.0770133333333,7.8,8.9,315,978.02,15.6,101,15.77,0.0,1004.07,24.4
2019-09-21 05:30,53.7480583333333,-98.0770533333333,6.8,8.3,323,977.90,15.5,101,15.74,0.0,1003.96,24.4
2019-09-21 05:40,53.7480716666667,-98.0770566666667,4.8,5.9,323,978.00,15.7,100,15.70,0.0,1004.06,24.4
2019-09-21 05:50,53.7480716666667,-98.077055,4.9,6.2,319,978.14,15.8,100,15.68,0.0,1004.20,24.4
2019-09-21 06:00,53.7480416666667,-98.077075,4.9,5.3,315,978.11,15.7,100,15.67,0.0,1004.18,360.0
2019-09-21 06:10,53.7480366666667,-98.0770716666667,5.0,5.9,316,978.03,15.5,100,15.68,0.0,1004.10,360.0
2019-09-21 06:20,53.7480333333333,-98.077055,6.0,6.5,313,978.10,15.4,100,15.69,0.0,1004.18,360.0
2019-09-21 06:30,53.7480483333333,-98.077075,5.2,6.1,326,978.16,15.4,100,15.70,0.0,1004.24,360.0
2019-09-21 06:40,53.7479566666667,-98.0770166666667,6.9,9.4,338,978.12,15.5,100,15.70,0.0,1004.20,360.0
2019-09-21 06:50,53.74795,-98.0770583333333,7.4,8.6,348,978.16,15.5,100,15.69,0.0,1004.24,360.0
2019-09-21 07:00,53.7479166666667,-98.07701,7.2,8.8,346,978.21,15.3,100,15.68,0.0,1004.31,163.9
2019-09-21 07:10,53.7479483333333,-98.0770216666667,6.4,8.9,344,978.29,15.1,100,15.68,0.0,1004.39,163.9
2019-09-21 07:20,53.7478733333333,-98.077005,6.5,8.0,349,978.16,15.0,100,15.67,0.0,1004.27,163.9
2019-09-21 07:30,53.74782,-98.0770583333333,7.2,9.7,343,978.04,14.8,100,15.67,0.0,1004.15,163.9
2019-09-21 07:40,53.7478016666667,-98.077075,6.9,8.6,338,978.07,14.7,100,15.68,0.0,1004.18,163.9
2019-09-21 07:50,53.747815,-98.0770383333333,6.6,8.0,331,978.16,14.6,100,15.67,0.0,1004.28,163.9
2019-09-21 08:00,53.747795,-98.0770433333333,6.6,8.3,329,978.16,14.6,100,15.68,0.0,1004.30,177.8
2019-09-21 08:10,53.7477683333333,-98.07705,6.8,8.9,330,978.17,14.5,100,15.69,0.0,1004.31,177.8
2019-09-21 08:20,53.7477266666667,-98.0771483333333,6.7,8.6,338,978.10,14.5,100,15.70,0.0,1004.24,177.8
2019-09-21 08:30,53.74767,-98.0772516666667,7.3,9.4,348,977.99,14.3,100,15.71,0.0,1004.13,177.8
2019-09-21 08:40,53.7476766666667,-98.07729,7.5,9.6,359,977.74,14.0,100,15.71,0.0,1003.89,177.8
2019-09-21 08:50,53.74767,-98.0772516666667,7.9,10.8,356,977.39,13.8,100,15.71,0.0,1003.55,177.8
2019-09-21 09:00,53.747675,-98.07722,8.4,10.9,355,977.22,13.7,100,15.70,0.0,1003.39,194.1
2019-09-21 09:10,53.7476716666667,-98.07729,8.3,12.1,356,977.22,13.7,100,15.68,0.0,1003.39,194.1
2019-09-21 09:20,53.7476966666667,-98.0771666666667,7.2,9.8,355,977.27,13.6,100,15.67,0.0,1003.45,194.1
2019-09-21 09:30,53.7476716666667,-98.0772383333333,8.8,10.9,346,977.24,13.6,100,15.67,0.0,1003.43,194.1
2019-09-21 09:40,53.7476883333333,-98.0772266666667,7.8,10.6,355,976.99,13.5,100,15.69,0.0,1003.18,194.1
2019-09-21 09:50,53.7477,-98.0771816666667,7.0,9.4,356,976.76,13.5,100,15.69,0.0,1002.94,194.1
2019-09-21 10:00,53.7477266666667,-98.0771283333333,6.5,8.9,352,976.68,13.6,100,15.67,0.0,1002.87,204.6
2019-09-21 10:10,53.7477483333333,-98.07711,6.1,8.0,348,976.76,13.6,100,15.68,0.0,1002.95,204.6
2019-09-21 10:20,53.7477066666667,-98.07719,8.2,10.2,341,976.88,13.6,100,15.68,0.0,1003.08,204.6
2019-09-21 10:30,53.747675,-98.0772416666667,8.0,10.0,352,976.87,13.7,100,15.67,0.0,1003.08,204.6
2019-09-21 10:40,53.747675,-98.0772016666667,8.7,11.1,352,976.68,13.7,100,15.67,0.0,1002.89,204.6
2019-09-21 10:50,53.7476933333333,-98.0771733333333,8.9,11.1,344,976.71,13.7,100,15.67,0.0,1002.93,204.6
2019-09-21 11:00,53.7476833333333,-98.0772,8.3,10.6,347,976.56,13.5,100,15.69,0.0,1002.78,220.1
2019-09-21 11:10,53.7477,-98.07718,7.6,9.3,345,976.64,13.3,100,15.70,0.0,1002.88,220.1
2019-09-21 11:20,53.74767,-98.07718,7.8,9.3,347,976.64,13.0,100,15.72,0.0,1002.89,220.1
2019-09-21 11:30,53.7476833333333,-98.0772433333333,8.0,9.7,353,976.68,12.7,100,15.74,0.0,1002.95,220.1
2019-09-21 11:40,53.7476833333333,-98.0772633333333,7.0,10.2,4,976.98,12.7,100,15.73,0.0,1003.26,220.1
2019-09-21 11:50,53.7476916666667,-98.0772383333333,6.5,8.7,10,977.22,12.7,100,15.71,0.0,1003.50,220.1
2019-09-21 12:00,53.74767,-98.07731,6.3,8.3,8,977.07,12.6,100,15.69,0.0,1003.35,264.2
2019-09-21 12:10,53.7476983333333,-98.0771983333333,6.7,8.9,2,976.95,12.4,100,15.65,0.0,1003.23,264.2
2019-09-21 12:20,53.7476483333333,-98.0772483333333,6.8,8.8,3,976.93,12.2,100,15.65,0.0,1003.23,264.2
2019-09-21 12:30,53.74768,-98.07727,6.8,8.2,358,976.97,11.9,101,15.64,0.0,1003.28,264.2
2019-09-21 12:40,53.7476766666667,-98.07725,6.7,8.1,4,976.96,11.9,101,15.64,0.0,1003.27,264.2
2019-09-21 12:50,53.7476683333333,-98.07727,7.1,9.0,6,976.95,12.0,101,15.63,0.0,1003.27,264.2
2019-09-21 13:00,53.7476733333333,-98.0772816666667,6.9,8.8,8,976.89,12.2,101,15.59,0.0,1003.20,235.7
2019-09-21 13:10,53.747665,-98.0772766666667,7.4,9.4,5,976.84,12.3,101,15.57,0.0,1003.16,235.7
2019-09-21 13:20,53.747675,-98.0772716666667,6.7,8.8,6,977.00,12.4,101,15.56,0.0,1003.33,235.7
2019-09-21 13:30,53.7476633333333,-98.0773433333333,7.3,9.3,6,977.06,12.3,101,15.55,0.0,1003.39,235.7
2019-09-21 13:40,53.7476366666667,-98.0773433333333,8.8,11.5,4,976.96,12.1,101,15.55,0.0,1003.31,235.7
2019-09-21 13:50,53.7476466666667,-98.077295,9.3,12.3,6,977.03,11.9,101,15.56,0.0,1003.39,235.7
2019-09-21 14:00,53.7476633333333,-98.077325,7.9,10.6,16,977.14,11.9,101,15.56,0.0,1003.51,252.4
2019-09-21 14:10,53.7476216666667,-98.07743,7.7,10.1,15,977.20,12.0,101,15.57,0.0,1003.58,252.4
2019-09-21 14:20,53.7476216666667,-98.0774183333333,7.6,9.9,24,977.16,12.1,101,15.58,0.0,1003.54,252.4
2019-09-21 14:30,53.747645,-98.07755,8.2,10.0,23,977.05,12.3,101,15.58,0.0,1003.42,252.4
2019-09-21 14:40,53.74763,-98.0773766666667,8.0,9.8,20,977.03,12.4,101,15.56,0.0,1003.40,252.4
2019-09-21 14:50,53.74764,-98.0773483333333,7.8,9.9,359,977.05,12.6,101,15.54,0.0,1003.40,252.4
2019-09-21 15:00,53.747655,-98.0772666666667,7.2,9.3,353,976.96,12.7,101,15.54,0.0,1003.29,121.6
2019-09-21 15:10,53.7476583333333,-98.07727,7.5,9.7,348,976.86,12.8,101,15.56,0.0,1003.18,121.6
2019-09-21 15:20,53.747675,-98.0772033333333,6.6,8.9,354,976.79,12.9,101,15.59,0.0,1003.11,121.6
2019-09-21 15:30,53.74763,-98.0774083333333,6.9,10.1,9,976.78,13.3,102,15.63,0.0,1003.10,121.6
2019-09-21 15:40,53.7413216666667,-98.0825916666667,5.4,10.9,352,976.87,13.4,102,15.67,2.5,1003.19,121.6
2019-09-21 15:50,53.71958,-98.1112516666667,8.4,13.7,281,976.82,13.6,102,15.65,9.9,1003.13,121.6
2019-09-21 16:00,53.7056583333333,-98.1576183333333,12.0,13.8,298,976.68,13.2,101,15.48,11.1,1003.00,228.6
2019-09-21 16:10,53.6924616666667,-98.2015066666667,11.7,13.3,301,976.72,13.1,101,15.41,10.5,1003.04,228.6
2019-09-21 16:20,53.6919433333333,-98.203865,7.2,9.7,349,976.76,12.8,101,15.42,0.5,1003.08,228.6
2019-09-21 16:30,53.6919183333333,-98.2038716666667,7.9,9.6,345,976.61,13.0,101,15.41,0.0,1002.92,228.6
2019-09-21 16:40,53.69032,-98.2296116666667,12.5,17.4,317,976.22,13.0,101,15.40,5.5,1002.50,228.6
2019-09-21 16:50,53.685075,-98.2806933333333,15.0,17.1,304,976.14,13.0,101,15.38,11.1,1002.42,228.6
2019-09-21 17:00,53.679175,-98.3316283333333,12.5,13.7,297,976.08,13.2,101,15.40,11.1,1002.34,245.6
2019-09-21 17:10,53.6731533333333,-98.3825683333333,11.9,12.7,289,975.97,13.6,101,15.45,11.1,1002.21,245.6
2019-09-21 17:20,53.6672816666667,-98.4280216666667,11.0,13.9,287,975.98,13.9,101,15.52,9.9,1002.19,245.6
2019-09-21 17:30,53.66512,-98.4423283333333,6.5,7.5,302,976.08,14.4,100,15.67,3.1,1002.26,245.6
2019-09-21 17:40,53.6643716666667,-98.454825,6.7,7.5,300,976.04,14.6,100,15.77,2.7,1002.20,245.6
2019-09-21 17:50,53.66363,-98.46733,6.6,7.4,294,976.04,14.7,100,15.84,2.7,1002.22,245.6
2019-09-21 18:00,53.6631833333333,-98.4805783333333,8.7,11.4,279,976.01,14.9,100,15.90,2.8,1002.18,250.7
2019-09-21 18:10,53.6620983333333,-98.483385,6.2,9.7,274,976.03,14.7,100,15.96,0.7,1002.23,250.7
2019-09-21 18:20,53.6622183333333,-98.483255,5.2,6.1,269,976.04,15.0,99,15.88,0.1,1002.21,250.7
2019-09-21 18:30,53.6622566666667,-98.4832583333333,4.8,5.4,260,976.17,15.1,99,15.95,0.0,1002.34,250.7
2019-09-21 18:40,53.67413,-98.4841216666667,4.9,10.3,299,976.11,15.2,99,15.97,4.3,1002.28,250.7
2019-09-21 18:50,53.7049183333333,-98.48745,9.3,10.4,338,975.84,15.1,99,16.05,11.1,1001.99,250.7
2019-09-21 19:00,53.7357216666667,-98.49076,8.7,10.0,338,975.84,15.4,96,16.00,11.1,1001.97,278.8
2019-09-21 19:10,53.76652,-98.4940366666667,7.5,8.6,330,975.88,15.5,96,15.89,11.1,1001.99,278.8
2019-09-21 19:20,53.79697,-98.496175,12.9,21.2,342,975.55,16.4,79,15.81,11.0,1001.58,278.8
2019-09-21 19:30,53.8052883333333,-98.4968166666667,10.3,15.0,329,975.65,18.0,62,15.73,3.0,1001.60,278.8
2019-09-21 19:40,53.8120783333333,-98.4973116666667,12.4,15.2,326,975.50,18.3,58,15.68,2.4,1001.43,278.8
2019-09-21 19:50,53.818765,-98.4985033333333,13.5,16.8,352,975.40,18.4,58,15.64,2.4,1001.31,278.8
2019-09-21 20:00,53.8329633333333,-98.4999666666667,14.0,18.4,339,975.43,18.5,55,15.55,5.1,1001.35,327.2
2019-09-21 20:10,53.8336066666667,-98.5004533333333,12.0,15.7,6,975.74,18.6,57,15.61,0.3,1001.65,327.2
2019-09-21 20:20,53.8336066666667,-98.5003733333333,8.8,13.4,5,975.86,18.5,55,15.60,0.0,1001.77,327.2
2019-09-21 20:30,53.84598,-98.4997833333333,10.4,17.3,3,975.73,18.4,57,15.67,4.5,1001.64,327.2
2019-09-21 20:40,53.8476533333333,-98.49997,10.7,16.7,315,975.79,18.7,55,15.72,0.6,1001.69,327.2
2019-09-21 20:50,53.847645,-98.4999866666667,8.7,11.7,312,975.86,18.8,55,15.75,0.0,1001.74,327.2
2019-09-21 21:00,53.847605,-98.500235,7.7,13.2,341,975.86,18.9,54,15.78,0.1,1001.74,356.4
2019-09-21 21:10,53.8476133333333,-98.5000833333333,7.0,9.9,312,975.89,18.9,53,15.80,0.0,1001.72,356.4
2019-09-21 21:20,53.8476583333333,-98.4999766666667,7.6,11.6,316,975.92,18.9,53,15.81,0.0,1001.69,356.4
2019-09-21 21:30,53.8476416666667,-98.5,9.2,12.7,315,975.89,18.9,52,15.83,0.0,1001.64,356.4
2019-09-21 21:40,53.84765,-98.4999616666667,10.8,14.0,308,975.81,18.9,49,15.83,0.0,1001.55,356.4
2019-09-21 21:50,53.8476183333333,-98.5000383333333,10.4,13.8,316,975.80,18.8,52,15.84,0.0,1001.54,356.4
2019-09-21 22:00,53.8320966666667,-98.5047616666667,7.0,13.4,324,975.86,19.1,52,15.83,5.7,1001.59,355.1
2019-09-21 22:10,53.8119283333333,-98.54464,15.6,21.3,290,975.59,18.4,59,15.72,11.2,1001.35,355.1
2019-09-21 22:20,53.79097,-98.5834233333333,14.5,17.2,294,975.70,18.0,61,15.64,11.2,1001.48,355.1
2019-09-21 22:30,53.7700766666667,-98.62153,19.1,20.9,283,975.55,17.1,69,15.67,11.1,1001.35,355.1
2019-09-21 22:40,53.748965,-98.6590966666667,18.8,19.9,282,975.64,17.0,69,15.73,11.0,1001.45,355.1
2019-09-21 22:50,53.7278516666667,-98.6967333333333,18.1,20.1,287,975.81,16.9,69,15.77,11.0,1001.62,355.1
2019-09-21 23:00,53.7067166666667,-98.734495,16.6,18.4,289,975.94,17.1,68,15.84,11.1,1001.75,227.8
2019-09-21 23:10,53.6854133333333,-98.7721516666667,16.0,18.1,299,976.03,17.0,69,15.85,11.1,1001.84,227.8
2019-09-21 23:20,53.6642083333333,-98.8099816666667,14.5,16.8,300,976.16,16.9,69,15.87,11.1,1001.98,227.8
2019-09-21 23:30,53.6430516666667,-98.8478383333333,13.5,16.0,306,976.26,16.9,69,15.89,11.1,1002.08,227.8
2019-09-21 23:40,53.6219983333333,-98.8859566666667,13.7,16.3,309,976.27,17.3,66,16.11,11.1,1002.08,227.8
2019-09-21 23:50,53.6018883333333,-98.9217283333333,16.1,19.9,300,976.27,17.5,63,16.10,10.5,1002.06,227.8
